Regional Weather Roundup
Issued by NWS Memphis, TN

Home | Current Version | Previous Version | Text Only | Print | Product List | Glossary On
Versions: 1 2 3 4 5 6 7 8 9 10 11 12 13 14 15 16 17 18 19 20 21 22 23 24 25 26 27 28 29 30 31 32 33 34 35 36 37 38 39 40 41 42 43 44 45 46 47 48 49 50
000
ASUS44 KMEG 200610
RWRMEG
MEMPHIS CWA HOURLY WEATHER ROUNDUP
NATIONAL WEATHER SERVICE MEMPHIS TN
1200 AM CST TUE FEB 20 2018

...WEST TENNESSEE...

CITY           SKY/WX    TMP DP  RH WIND       PRES   REMARKS
MEMPHIS INTL   FAIR      70  59  68 S16G25    30.07R
6HR MIN TEMP:  69; 6HR MAX TEMP:  72;

NWS MEMPHIS      N/A     71 N/A N/A MISG        N/A
JACKSON        FAIR      69  61  75 S15G24    30.09R
6HR MIN TEMP:  69; 6HR MAX TEMP:  71;

COVINGTON      PTCLDY    70  61  73 S14G23    30.05F
SOMERVILLE     CLEAR     70  61  73 S13G22    30.08R
BOLIVAR        PTCLDY    70  61  73 S17G28    30.09F
LEXINGTON      PTCLDY    68  59  73 S12G18    30.13R
SELMER         PTCLDY    68  59  73 S13G20    30.14R
SAVANNAH       MOCLDY    68  59  73 S10G17    30.15R
DYERSBURG      FAIR      68  61  78 S13G18    30.06S
6HR MIN TEMP:  67; 6HR MAX TEMP:  71;

UNION CITY     CLEAR     68  61  77 S20G28    30.04S
PARIS          MOCLDY    68  59  73 S15G24    30.07S
HUNTINGDON     MOCLDY    68  59  73 S15G23    30.09R


...EASTERN ARKANSAS...

CITY           SKY/WX    TMP DP  RH WIND       PRES   REMARKS
JONESBORO      MOCLDY    65  59  81 S14       30.00R
6HR MIN TEMP:  64; 6HR MAX TEMP:  70;

WEST MEMPHIS   FAIR      67  59  75 S17       30.03S
6HR MIN TEMP:  63; 6HR MAX TEMP:  69;

BATESVILLE     CLOUDY    70  59  68 S7        29.98R
6HR MIN TEMP:  64; 6HR MAX TEMP:  70;

WALNUT RIDGE   FAIR      65  58  78 S15       29.97R
6HR MIN TEMP:  65; 6HR MAX TEMP:  68;

BLYTHEVILLE    FAIR      66  59  78 S13       30.03S
6HR MIN TEMP:  66; 6HR MAX TEMP:  69;

SEARCY         CLOUDY    68  63  84 S15       29.99R
6HR MIN TEMP:  64; 6HR MAX TEMP:  69;

STUTTGART      MOCLDY    68  60  75 S16       30.02R
6HR MIN TEMP:  65; 6HR MAX TEMP:  73;

PINE BLUFF     FAIR      67  59  75 S13       30.02R
6HR MIN TEMP:  67; 6HR MAX TEMP:  72;

MONTICELLO     FAIR      67  58  72 S9        30.04R
6HR MIN TEMP:  67; 6HR MAX TEMP:  75;



...NORTH MISSISSIPPI...

CITY           SKY/WX    TMP DP  RH WIND       PRES   REMARKS
TUPELO         FAIR      67  59  75 SE10      30.16R
6HR MIN TEMP:  67; 6HR MAX TEMP:  72;

OXFORD         MOCLDY    68  59  73 S10G17    30.14S
BATESVILLE       N/A    N/A N/A N/A MISG        N/A
TUNICA           N/A     66  59  77 SE16      30.06F
CLARKSDALE     PTCLDY    70  64  83 SE16      30.06F
CORINTH        FAIR      68  59  73 S13       30.14S
GREENWOOD      FAIR      69  63  81 S15       30.12R
6HR MIN TEMP:  69; 6HR MAX TEMP:  74;

COLUMBUS       FAIR      68  63  84 S10       30.18R
6HR MIN TEMP:  63; 6HR MAX TEMP:  73;

STARKVILLE     FAIR      66  61  82 S10       30.19R
GOLDEN TRIANGL FAIR      67  62  84 S16       30.19R
6HR MIN TEMP:  67; 6HR MAX TEMP:  73;



...SOUTHEAST MISSOURI...

CITY           SKY/WX    TMP DP  RH WIND       PRES   REMARKS
KENNETT        FAIR      66  59  77 S15G22    29.98F
MALDEN         FAIR      68  57  68 S21       29.99F
WEST PLAINS    PTCLDY    66  57  72 S15G22    29.93R
6HR MIN TEMP:  65; 6HR MAX TEMP:  67;

POPLAR BLUFF   FAIR      64  56  75 S9        29.96S
6HR MIN TEMP:  64; 6HR MAX TEMP:  67;

CAPE GIRARDEAU FAIR      66  57  72 S16       29.98S
6HR MIN TEMP:  63; 6HR MAX TEMP:  70;



...NORTHWEST ALABAMA...

CITY           SKY/WX    TMP DP  RH WIND       PRES   REMARKS
MUSCLE SHOALS  FAIR      68  57  68 S10       30.20R
6HR MIN TEMP:  65; 6HR MAX TEMP:  71;



...MIDDLE TENNESSEE...

CITY           SKY/WX    TMP DP  RH WIND       PRES   REMARKS
NASHVILLE      MOCLDY    68  55  63 S17       30.16R
6HR MIN TEMP:  65; 6HR MAX TEMP:  69;

CLARKSVILLE    FAIR      69  56  62 S16G28    30.11R
6HR MIN TEMP:  67; 6HR MAX TEMP:  69;

COLUMBIA       PTCLDY    68  59  73 S14G23    30.16R


...WESTERN KENTUCKY...

CITY           SKY/WX    TMP DP  RH WIND       PRES   REMARKS
PADUCAH        FAIR      68  58  70 S12G23    30.01S
6HR MIN TEMP:  66; 6HR MAX TEMP:  70;

FORT CAMPBELL  FAIR      69  57  67 S13G20    30.10R
6HR MIN TEMP:  67; 6HR MAX TEMP:  70;



...CENTRAL ARKANSAS...

CITY           SKY/WX    TMP DP  RH WIND       PRES   REMARKS
LITTLE ROCK    CLOUDY    70  60  70 S13G21    29.99R
6HR MIN TEMP:  67; 6HR MAX TEMP:  70;



SKY/WX REPORTED AS FAIR MEANS FEW OR NO CLOUDS BELOW
12 THOUSAND FEET.





USA.gov is the U.S. government's official web portal to all federal, state and local government web resources and services.